Show Low, AZ

7:56 AM MST on July 28, 2017 (GMT -0700)
Show Low Municipal

Weather History for KSOW - October, 2012

Change the Weather History Date:

Thursday, October 4, 2012

  Actual Average Record
Temperature  
Mean Temperature 62 °F -  
Max Temperature 75 °F 70 °F 84 °F (1980)
Min Temperature 50 °F 47 °F 30 °F (1971)
Degree Days  
Heating Degree Days 2    
Growing Degree Days 12 (Base 50)    
Moisture  
Dew Point 27 °F    
Average Humidity 26    
Maximum Humidity 40    
Minimum Humidity 15    
Precipitation  
Precipitation 0.00 in - - ()
Sea Level Pressure  
Sea Level Pressure 30.31 in    
Wind  
Wind Speed 12 mph (SSW)    
Max Wind Speed 25 mph    
Max Gust Speed 31 mph    
Visibility 10 miles    
Events      
Averages and records for this station are not official NWS values.
T = Trace of Precipitation, MM = Missing Value Source: NWS Daily Summary

Daily Weather History Graph

Daily Weather History Graph

Search for Another Location

Airport or City:

Trip Planner

Search our weather history database for the weather conditions in past years. The results will help you decide how hot, cold, wet, or windy it might be!

Date:

Astronomy

Oct. 04, 2012 Rise Set
Actual Time 6:17 AM MST 5:59 PM MST
Civil Twilight 5:52 AM MST 6:24 PM MST
Nautical Twilight 5:23 AM MST 6:53 PM MST
Astronomical Twilight 4:53 AM MST 7:22 PM MST
Moon 8:49 PM MST (10/4) 10:25 AM MST (10/4)
Length of Visible Light 12h 32m
Length of Day
11h 42m
Waning Gibbous, 81% of the Moon is Illuminated
Oct 4
Waning Gibbous
Oct 8
Last Quarter
Oct 15
New
Oct 21
First Quarter
Oct 29
Full

Hourly Weather History & Observations

Time (MST) Temp. Dew Point Humidity Pressure Visibility Wind Dir Wind Speed Gust Speed Precip Events Conditions
12:15 AM 57.2 °F 23.0 °F 27% 30.31 in 10.0 mi South 9.2 mph - N/A   Clear
12:35 AM 59.0 °F 23.0 °F 25% 30.31 in 10.0 mi South 10.4 mph - N/A   Clear
12:55 AM 59.0 °F 23.0 °F 25% 30.32 in 10.0 mi South 10.4 mph - N/A   Clear
1:35 AM 57.2 °F 23.0 °F 27% 30.32 in 10.0 mi South 10.4 mph - N/A   Clear
1:55 AM 57.2 °F 23.0 °F 27% 30.31 in 10.0 mi South 10.4 mph - N/A   Clear
2:15 AM 57.2 °F 23.0 °F 27% 30.31 in 10.0 mi South 10.4 mph - N/A   Clear
2:35 AM 57.2 °F 23.0 °F 27% 30.31 in 10.0 mi South 10.4 mph - N/A   Clear
2:55 AM 55.4 °F 24.8 °F 31% 30.31 in 10.0 mi South 9.2 mph - N/A   Clear
3:15 AM 57.2 °F 24.8 °F 29% 30.31 in 10.0 mi South 10.4 mph - N/A   Clear
3:35 AM 55.4 °F 23.0 °F 29% 30.31 in 10.0 mi South 10.4 mph - N/A   Clear
3:55 AM 53.6 °F 24.8 °F 33% 30.32 in 10.0 mi South 8.1 mph - N/A   Clear
4:15 AM 55.4 °F 24.8 °F 31% 30.32 in 10.0 mi South 10.4 mph - N/A   Clear
4:35 AM 53.6 °F 24.8 °F 33% 30.32 in 10.0 mi South 10.4 mph - N/A   Clear
4:55 AM 53.6 °F 24.8 °F 33% 30.32 in 10.0 mi South 10.4 mph - N/A   Clear
5:15 AM 53.6 °F 24.8 °F 33% 30.33 in 10.0 mi South 10.4 mph - N/A   Clear
5:35 AM 50.0 °F 24.8 °F 37% 30.33 in 10.0 mi South 10.4 mph - N/A   Clear
5:55 AM 50.0 °F 26.6 °F 40% 30.33 in 10.0 mi South 10.4 mph - N/A   Clear
6:15 AM 50.0 °F 26.6 °F 40% 30.34 in 10.0 mi South 9.2 mph - N/A   Clear
6:35 AM 50.0 °F 26.6 °F 40% 30.34 in 10.0 mi South 8.1 mph - N/A   Clear
6:55 AM 51.8 °F 26.6 °F 38% 30.34 in 10.0 mi South 8.1 mph - N/A   Clear
7:15 AM 55.4 °F 28.4 °F 36% 30.35 in 10.0 mi South 5.8 mph - N/A   Clear
7:35 AM 59.0 °F 28.4 °F 31% 30.35 in 10.0 mi South 8.1 mph - N/A   Clear
7:55 AM 62.6 °F 28.4 °F 27% 30.35 in 10.0 mi South 8.1 mph - N/A   Clear
8:15 AM 64.4 °F 28.4 °F 26% 30.36 in 10.0 mi South 10.4 mph - N/A   Clear
8:35 AM 66.2 °F 32.0 °F 28% 30.36 in 10.0 mi South 8.1 mph - N/A   Clear
8:55 AM 66.2 °F 32.0 °F 28% 30.36 in 10.0 mi SSW 9.2 mph - N/A   Clear
9:15 AM 68.0 °F 32.0 °F 26% 30.37 in 10.0 mi SSW 8.1 mph - N/A   Clear
9:35 AM 68.0 °F 32.0 °F 26% 30.37 in 10.0 mi WSW 11.5 mph - N/A   Clear
9:55 AM 69.8 °F 32.0 °F 25% 30.37 in 10.0 mi SSW 12.7 mph 17.3 mph N/A   Clear
10:15 AM 71.6 °F 33.8 °F 25% 30.37 in 10.0 mi SSW 16.1 mph 21.9 mph N/A   Clear
10:35 AM 71.6 °F 32.0 °F 23% 30.37 in 10.0 mi SSW 17.3 mph 24.2 mph N/A   Clear
10:55 AM 71.6 °F 32.0 °F 23% 30.37 in 10.0 mi SW 13.8 mph 23.0 mph N/A   Clear
11:15 AM 71.6 °F 30.2 °F 22% 30.37 in 10.0 mi SSW 18.4 mph 28.8 mph N/A   Clear
11:35 AM 73.4 °F 30.2 °F 20% 30.36 in 10.0 mi SW 19.6 mph 29.9 mph N/A   Clear
11:55 AM 73.4 °F 30.2 °F 20% 30.35 in 10.0 mi SSW 18.4 mph 26.5 mph N/A   Clear
12:15 PM 73.4 °F 30.2 °F 20% 30.34 in 10.0 mi SW 17.3 mph 25.3 mph N/A   Clear
12:35 PM 73.4 °F 32.0 °F 22% 30.33 in 10.0 mi SW 16.1 mph 27.6 mph N/A   Clear
12:55 PM 75.2 °F 32.0 °F 21% 30.31 in 10.0 mi South 11.5 mph 27.6 mph N/A   Clear
1:15 PM 75.2 °F 28.4 °F 18% 30.30 in 10.0 mi SW 18.4 mph 27.6 mph N/A   Clear
1:35 PM 75.2 °F 26.6 °F 17% 30.30 in 10.0 mi SW 19.6 mph 25.3 mph N/A   Clear
1:55 PM 75.2 °F 26.6 °F 17% 30.29 in 10.0 mi WSW 20.7 mph 27.6 mph N/A   Clear
2:15 PM 75.2 °F 26.6 °F 17% 30.29 in 10.0 mi SW 20.7 mph 26.5 mph N/A   Clear
2:35 PM 75.2 °F 26.6 °F 17% 30.28 in 10.0 mi SW 18.4 mph 28.8 mph N/A   Clear
2:55 PM 75.2 °F 26.6 °F 17% 30.28 in 10.0 mi SW 19.6 mph 27.6 mph N/A   Clear
3:15 PM 75.2 °F 24.8 °F 15% 30.28 in 10.0 mi SW 16.1 mph 28.8 mph N/A   Clear
3:35 PM 75.2 °F 24.8 °F 15% 30.27 in 10.0 mi WSW 21.9 mph 26.5 mph N/A   Clear
3:55 PM 73.4 °F 24.8 °F 16% 30.27 in 10.0 mi WSW 25.3 mph 31.1 mph N/A   Clear
4:15 PM 73.4 °F 24.8 °F 16% 30.27 in 10.0 mi WSW 15.0 mph 26.5 mph N/A   Clear
4:35 PM 73.4 °F 24.8 °F 16% 30.27 in 10.0 mi SW 21.9 mph 25.3 mph N/A   Clear
4:55 PM 71.6 °F 26.6 °F 19% 30.27 in 10.0 mi SW 17.3 mph 26.5 mph N/A   Clear
5:15 PM 69.8 °F 24.8 °F 18% 30.27 in 10.0 mi SW 17.3 mph 25.3 mph N/A   Clear
5:35 PM 68.0 °F 26.6 °F 21% 30.27 in 10.0 mi SW 18.4 mph 24.2 mph N/A   Clear
5:55 PM 68.0 °F 26.6 °F 21% 30.28 in 10.0 mi SW 15.0 mph - N/A   Clear
6:15 PM 66.2 °F 24.8 °F 21% 30.28 in 10.0 mi SW 15.0 mph 19.6 mph N/A   Clear
6:35 PM 64.4 °F 24.8 °F 22% 30.28 in 10.0 mi SW 15.0 mph - N/A   Clear
6:55 PM 64.4 °F 24.8 °F 22% 30.27 in 10.0 mi SW 12.7 mph 16.1 mph N/A   Clear
7:15 PM 62.6 °F 24.8 °F 24% 30.27 in 10.0 mi SSW 12.7 mph 17.3 mph N/A   Clear
7:35 PM 62.6 °F 26.6 °F 26% 30.27 in 10.0 mi SSW 11.5 mph - N/A   Clear
7:55 PM 62.6 °F 26.6 °F 26% 30.27 in 10.0 mi SW 10.4 mph - N/A   Unknown
8:15 PM 62.6 °F 28.4 °F 27% 30.27 in 10.0 mi SW 10.4 mph - N/A   Clear
8:35 PM 60.8 °F 28.4 °F 29% 30.27 in 10.0 mi SSW 8.1 mph - N/A   Clear
8:55 PM 60.8 °F 28.4 °F 29% 30.27 in 10.0 mi SSW 9.2 mph - N/A   Clear
9:15 PM 60.8 °F 28.4 °F 29% 30.26 in 10.0 mi SSW 12.7 mph 19.6 mph N/A   Clear
9:35 PM 60.8 °F 28.4 °F 29% 30.26 in 10.0 mi SSW 15.0 mph 19.6 mph N/A   Clear
9:55 PM 59.0 °F 28.4 °F 31% 30.26 in 10.0 mi SSW 18.4 mph 23.0 mph N/A   Clear
10:15 PM 59.0 °F 28.4 °F 31% 30.26 in 10.0 mi SSW 18.4 mph 24.2 mph N/A   Clear
10:35 PM 59.0 °F 28.4 °F 31% 30.26 in 10.0 mi SSW 15.0 mph 20.7 mph N/A   Clear
10:55 PM 59.0 °F 28.4 °F 31% 30.27 in 10.0 mi SSW 13.8 mph 18.4 mph N/A   Clear
11:15 PM 60.8 °F 28.4 °F 29% 30.27 in 10.0 mi SSW 13.8 mph - N/A   Clear
11:35 PM 59.0 °F 28.4 °F 31% 30.26 in 10.0 mi SSW 16.1 mph - N/A   Clear
11:55 PM 60.8 °F 28.4 °F 29% 30.26 in 10.0 mi SSW 16.1 mph 21.9 mph N/A   Clear